Location: Kuppenheim
(48.8299°N, 8.2568°E)
Time: 13:07:30
(UTC+00:00)

Helios 1B rocket - Pass Details

Date: 20 June 2021
Orbit: 573 x 583 km, 98.2° (Epoch: 05 August)

Event Time Altitude Azimuth Distance (km) Brightness Sun altitude
Rises 00:46:33 0° 21° (NNE) 2,801 7.8 -15.7°
Reaches altitude 10° 00:48:52 10° 30° (NNE) 1,896 6.4 -15.5°
Maximum altitude 00:52:39 35° 97° (E) 938 3.6 -15.3°
Enters shadow 00:55:15 17° 156° (SSE) 1,471 4.1 -15.2°
